Voltar ao catálogo

STARLINK-2071

AtivoComunicaçõesVLEO
NORAD 47361·PAYLOAD·🇺🇸 United States

Lançado Jan 20, 2021 de Cape Canaveral Space Force Station

Loading…

Próximas Passagens (próximas 24 horas)

TLE

AtualizadoSource: CelesTrak SupGP

Época: Sep 15, 2026, 02:17 UTC

1 47361C 21005N   26258.09562500 -.00024556  00000+0 -78968-3 0  2581
2 47361  53.1569 235.9874 0001326  87.6451 264.7578 15.31713440    12

Acompanhe STARLINK-2071 em tempo real com AllMySat

Download on the App Store